www.pogodaiklimat.ru

Погода и климат >> Архив погоды >> Иран >> Iranshahr


ПОГОДА в Iranshahr

  • Прогноз погоды в Iranshahr
  • Монитор погоды в Iranshahr
  • Климат города

АРХИВ ПОГОДЫ в Iranshahr

Время (UTC), дата Ветер
(напр.,м/с)
 
Видим.   Явления Облачность Т
(С)
Тd
(С)
f
(%)
Тe
(С)
Тes
(С)
Комфортность P
(гПа)
Po
(гПа)
Тmin
(С)
Tmax
(С)
R
(мм)
R24
(мм)
S
(см)
03 9.07 штиль 0 5000 м мгла ясно +32.8 +10.3 25 +32 +37 жарко 995.4 933.6 +30.2
06 9.07 Ю 2 6000 м мгла ясно +38.2 +10.2 19 +37 +55 опасность
солнечного
удара
995.5 934.0
09 9.07 Ю 3 10 км ясно +44.3 +4.9 9 +41 +59 опасность
перегрева
992.7 931.5
12 9.07 С 5 10 км 3/0
[Ci fib]
+45.3 +0.5 6 +41 +45 опасность
перегрева
991.6 930.0
15 9.07 СЗ 6 15 км ясно +43.0 -3.4 5 +39 +39 очень
жарко
992.5 930.7 +46.1
18 9.07 СЗ 4 12 км ясно +38.5 -3.4 7 +34 +34 очень
жарко
993.5 931.7
21 9.07 З 2 12 км ясно +32.5 -2.4 10 +29 +29 жарко 993.0 931.3
00 10.07 СВ 4 12 км ясно +30.2 -4.3 10 +27 +27 жарко 993.6 931.7
03 10.07 С 2 12 км 9/0
[Cs]
+32.0 -4.0 10 +28 +31 жарко 995.6 933.5 +29.0
06 10.07 штиль 0 12 км 1/0
[Ci fib]
+40.1 -1.2 8 +36 +60 опасность
солнечного
удара
995.7 934.0
09 10.07 С 3 12 км 5/0
[Cs]
+44.7 -0.6 6 +41 +56 опасность
перегрева
995.1 931.9
12 10.07 штиль 0 12 км 3/0
[Ci sp]
+45.9 -1.6 5 +42 +51 опасность
перегрева
991.8 930.1
15 10.07 СЗ 4 12 км 6/0
[Cs]
+43.7 -2.4 6 +40 +40 очень
жарко
992.0 930.2 +46.8
18 10.07 С 4 10 км 4/0
[Cs]
+39.8 -1.6 7 +36 +36 очень
жарко
993.0 931.6
21 10.07 З 2 10 км 1/0
[Ci sp]
+34.6 -1.0 10 +31 +31 жарко 992.9 931.4
00 11.07 С 3 10 км ясно +31.7 -2.8 11 +28 +28 жарко 993.3 931.6
03 11.07 штиль 0 12 км 4/0
[Cs]
+33.1 +0.2 12 +30 +34 жарко 994.9 933.1 +30.1
06 11.07 З 3 10 км 1/0
[Ci sp]
+39.6 +1.5 9 +36 +50 очень
жарко
995.3 933.7
09 11.07 ЮЗ 3 10 км 1/0
[Ci sp]
+45.1 +2.6 8 +42 +59 опасность
перегрева
992.6 931.2
12 11.07 З 3 8000 м мгла 1/1 1200 м
[Cu hum Ci sp]
+45.5 +3.8 8 +42 +48 опасность
перегрева
991.3 929.8
15 11.07 С 6 8000 м пыльный позёмок ясно +43.0 +3.1 9 +40 +40 очень
жарко
991.6 929.9 +46.4
18 11.07 СЗ 4 8000 м мгла ясно +40.0 +3.5 11 +37 +37 очень
жарко
992.3 930.9
21 11.07 штиль 0 8000 м мгла ясно +35.6 +2.6 13 +32 +32 жарко 991.5 930.3
00 12.07 С 2 10 км ясно +32.8 +1.6 14 +30 +30 жарко 991.7 930.2
03 12.07 В 2 4000 м мгла ясно +32.8 +2.3 14 +30 +33 жарко 993.6 931.8 +31.6
06 12.07 ЮЗ 3 4000 м мгла ясно +40.6 +4.6 11 +38 +52 опасность
солнечного
удара
993.8 932.5
09 12.07 СЗ 8 4000 м пыльный позёмок ясно +43.4 +4.1 9 +40 +44 очень
жарко
992.0 930.6
12 12.07 СЗ 7 5000 м пыльный позёмок ясно +43.6 +3.1 9 +40 +42 очень
жарко
990.8 929.2
15 12.07 С 7 2500 м пыльный позёмок ясно +41.2 +1.8 9 +38 +38 очень
жарко
991.1 929.3 +44.3
18 12.07 штиль 0 8000 м мгла ясно +36.3 -0.7 10 +33 +33 жарко 991.9 930.3
21 12.07 штиль 0 8000 м мгла ясно +33.9 +0.7 12 +31 +31 жарко 991.8 930.2
00 13.07 Ю 2 8000 м мгла ясно +31.6 +1.4 15 +29 +29 жарко 991.9 930.1
03 13.07 С 2 7000 м мгла 3/3 1200 м
[Sc]
+32.3 +1.5 14 +29 +32 жарко 993.5 931.5 +29.8
06 13.07 штиль 0 7000 м мгла 3/0
[Ac As]
+40.3 +3.0 10 +37 +56 опасность
солнечного
удара
993.7 932.0
09 13.07 СЗ 3 7000 м мгла 1/1 1350 м
[Cu hum]
+43.4 +3.3 9 +40 +56 опасность
солнечного
удара
991.9 930.3
12 13.07 СЗ 5 7000 м мгла 1/1 1350 м
[Cu hum]
+44.6 +4.6 9 +42 +45 опасность
перегрева
990.1 928.6
15 13.07 З 7 8000 м пыльный позёмок ясно +42.0 +2.8 9 +39 +39 очень
жарко
990.5 928.7 +45.5
18 13.07 С 2 10 км ясно +37.4 -0.2 9 +34 +34 очень
жарко
992.4 930.8
21 13.07 ЮЗ 2 10 км ясно +33.3 -0.1 12 +30 +30 жарко 992.3 930.6
00 14.07 СВ 3 10 км ясно +30.7 -1.3 13 +28 +28 жарко 992.4 930.6
03 14.07 СВ 3 6000 м мгла ясно +33.6 -0.2 12 +30 +33 жарко 993.7 931.8 +30.1
06 14.07 ЮЗ 2 8000 м мгла ясно +41.0 +1.6 9 +37 +55 опасность
солнечного
удара
993.8 932.2
09 14.07 З 4 8000 м мгла ясно +44.7 +5.6 10 +42 +56 опасность
перегрева
991.7 930.3
12 14.07 штиль 0 8000 м мгла ясно +45.9 +4.6 8 +43 +53 опасность
перегрева
989.9 928.4
15 14.07 З 6 8000 м пыльный позёмок 1/0
[Ci fib]
+42.9 +4.1 10 +40 +40 очень
жарко
989.8 928.3 +46.2
18 14.07 З 3 8000 м мгла ясно +38.4 +14.4 24 +39 +39 очень
душно
991.3 930.2
21 14.07 С 2 6000 м мгла ясно +36.9 +14.3 26 +38 +38 очень
душно
991.5 930.6
00 15.07 ЮЗ 3 8000 м мгла ясно +33.6 +14.2 31 +35 +35 душно 991.3 930.2
03 15.07 С 2 7000 м мгла 3/0
[Ci fib]
+34.6 +13.9 29 +36 +39 душно 993.0 931.6 +32.8
06 15.07 ЮЗ 4 8000 м мгла 4/0
[Ci sp]
+39.0 +14.4 23 +40 +50 очень
душно
993.3 931.9
09 15.07 Ю 3 10 км 5/1 1200 м
[Cu hum Cs]
+43.7 +10.2 14 +42 +56 опасность
перегрева
990.8 929.7
12 15.07 Ю 4 10 км 5/1 1200 м
[Sc diur, vesp Cs]
+46.0 +6.4 9 +43 +47 опасность
перегрева
988.5 927.4
15 15.07 ЮЗ 4 12 км 4/1 1200 м
[Sc diur, vesp Cs]
+43.6 +5.5 10 +41 +41 опасность
перегрева
988.1 926.9 +46.2
18 15.07 З 3 8000 м мгла 3/0
[Ci sp]
+39.1 +13.7 22 +39 +39 очень
жарко
989.6 928.5
21 15.07 З 2 8000 м мгла ясно +37.2 +16.7 30 +40 +40 очень
душно
990.3 929.5
00 16.07 штиль 0 8000 м мгла ясно +34.2 +15.7 33 +36 +36 душно 990.4 929.5

 

Местоположение метеостанции Iranshahr (Иран): широта 27.20 долгота 60.70 высота над уровнем моря 591 м.

В архиве по умолчанию представлена погода в Iranshahr за последнюю неделю. Архивные данные за месяц целиком и за предыдущие месяцы, начиная с января 2011 года, Вы можете получить, выбрав интересующий диапазон дат из раскрывающегося списка и нажав кнопку "Ввод!".


*Определитесь, кто Вы:
робот инопланетянин человек

Внимание! Время в таблицах - всемирное. Для получения местного времени необходимо прибавить поправку, которая в Iranshahr равна 3.5 ч.

Смотрите также архив погоды в соседних городах и на ближайших метеорологических станциях:

Погода в Saravan (Иран) (162 км)
Погода в Chah Bahar Airport (Иран) (214 км)
Погода в Zahedan (Иран) (253 км)
Погода в Jiwani (Пакистан) (261 км)
Погода в Nokkundi (Пакистан) (270 км)
Погода в Gawadar (Пакистан) (282 км)
Погода в Kahnuj (Иран) (308 км)
Погода в Bam (Иран) (309 км)
Погода в Panjgur (Пакистан) (338 км)
Погода в Jask (Иран) (340 км)

Пояснения к столбцам:

Ветер - указаны скорость ветра в м/с - средняя за 10 мин, порывы в срок и между сроками (в фигурных скобках) и направление, откуда дует ветер: С - северный, СВ - северо-восточный, В - восточный, ЮВ - юго-восточный, Ю - южный, ЮЗ - юго-западный, З - западный, СЗ - северо-западный.
Видимость - горизонтальная дальность видимости в метрах или километрах. При видимости от 1 до 10 км при отсутствии осадков обычно наблюдается дымка, при ухудшении видимости до 1 км и менее - туман. В сухую погоду видимость может ухудшаться дымом, пылью или мглою.
Явления - указаны атмосферные явления, наблюдавшиеся в срок или в последний час перед сроком; фигурными скобками обозначены явления, наблюдавшиеся между сроками (за 1-3 часа до срока); квадратными скобками обозначены град или гололедные отложения с указанием их диаметра в мм.
Облачность - указаны через наклонную черту общая и нижняя облачность в баллах и высота нижней границы облаков в метрах; квадратными скобками обозначены формы облаков: Ci - перистые, Cs - перисто-слоистые, Cc - перисто-кучевые, Ac - высококучевые, As - высокослоистые, Sc - слоисто-кучевые, Ns - слоисто-дождевые, Cu - кучевые, Cb - кучево-дождевые. Подробнее классификацию облаков см. в Атласе облаков (PDF).
T - Температура воздуха - температура, измеренная на высоте 2 м над землей.
Td - Температура точки росы - температура, при понижении до которой содержащийся в воздухе водяной пар достигнет насыщения.
f - Относительная влажность воздуха - влажноcть воздуха, измеренная на высоте 2 м над землей.
Te - Эффективная температура - температура, которую ощущает одетый по сезону человек в тени. Характеристика душности погоды. При расчете учитывается влияние влажности воздуха и скорости ветра на теплоощущения человека.
Tes - Эффективная температура на солнце - температура, которую ощущает человек, с поправкой на солнечный нагрев. Характеристика знойности погоды. Зависит от высоты солнца над горизонтом, облачности и скорости ветра. Ночью, в пасмурную погоду, а также при ветре 12 м/с и более поправка равна нулю.
P - Атмосферное давление - приведенное к уровню моря атмосферное давление.
Po - Атмосферное давление - измеренное на уровне метеостанции атмосферное давление.
Tmin - Минимальная температура - минимум температуры воздуха на высоте 2 м над землей.
Tmax - Максимальная температура - максимум температуры воздуха на высоте 2 м над землей.
R - Количество осадков - Количество выпавших осадков за период времени, мм. При наведении курсора мыши на число - период времени, за который выпало указанное количество осадков.
R24 - Количество осадков - Количество выпавших осадков за 24 часа, мм.
S - Снежный покров - Высота снежного покрова, см. При наведении курсора мыши на число - состояние снежного покрова и степень покрытия местности в баллах.